Strona główna
METAR-TAF:

METAR-TAF

Lotnisko :

Philip Municipal Airport

Philip, Dakota Południowa, Stany Zjednoczone

Szerokość geograficzna: 44-03-04N, Długość geograficzna: 101-36-04W, wysokość: 673 m

Aktualna obserwacja pogody

Raport powstał 50 minut temu, godzina 18:55 UTC
Wiatr 11 kt od wschód
Temperatura 2°C
Wilgotność 75%
Ciśnienie 1004 hPa
Widzialność: 16.1 km
bezchmurnie

METAR: KPHP 081855Z AUTO 10011KT 10SM CLR 02/M02 A2964 RMK AO2 SLP048 T00171022

czas: 12:45 (19:45 UTC)


TAF: brakujący

Obserwacja i prognoza pogody dla ponad 4000 lotnisk (raport METAR i TAF).

Dostępne stacje oznaczono żółtymi i czerwonymi punktami na mapie.

Najedź kursorem aby zobaczyć nazwę stacji.

Kliknij aby zobaczyć obserwacje i prognozy pogody.

Aby zmienić mapę: kliknij na zielony przycisk z czarnym krzyżykiem, aby powiększyć; na zielony przycisk z myślnikiem, aby pomniejszyć; na zielone strzałki, aby przejść do map sąsiednich.


METAR-TAF: